Weather History for Monte Cimone, Italy

Change the Weather History Date:

Monday, October 31, 2011

  Actual Average Record
Temperature  
Mean Temperature 49 °F -  
Max Temperature 52 °F 35 °F 51 °F (2005)
Min Temperature 46 °F 27 °F 21 °F (1997)
Degree Days  
Heating Degree Days 16    
Moisture  
Dew Point 21 °F    
Average Humidity 36    
Maximum Humidity 46    
Minimum Humidity 5    
Precipitation  
Precipitation 0.00 in 0.10 in - ()
Sea Level Pressure  
Sea Level Pressure 30.21 in    
Wind  
Wind Speed 1 mph ()    
Max Wind Speed 8 mph    
Max Gust Speed -    
Averages and records for this station are not official NWS values.
T = Trace of Precipitation, MM = Missing Value Source: Averaged Metar Reports

Daily Weather History Graph

Daily Weather History Graph

Search for Another Location

Airport:

Trip Planner

Search our weather history database for the weather conditions in past years. The results will help you decide how hot, cold, wet, or windy it might be!

Date:

Astronomy

Oct. 31, 2011 Rise Set
Actual Time 6:51 AM CET 5:09 PM CET
Civil Twilight 6:21 AM CET 5:39 PM CET
Nautical Twilight 5:47 AM CET 6:13 PM CET
Astronomical Twilight 5:14 AM CET 6:46 PM CET
Moon 11:52 AM CET (10/31) 9:21 PM CET (10/31)
Length of Visible Light 11h 17m
Length of Day
10h 17m
Waxing Crescent, 27% of the Moon is Illuminated
Oct 31
Waxing Crescent
Nov 2
First Quarter
Nov 10
Full
Nov 18
Last Quarter
Nov 25
New

Hourly Weather History & Observations

Time (CET) Temp. Windchill Dew Point Humidity Pressure Visibility Wind Dir Wind Speed Gust Speed Precip Events Conditions
12:55 AM 46.4 °F - 23.0 °F 40% 30.27 in - Calm Calm - N/A   Clear
1:00 AM 46 °F - 22 °F 26%  in 31 mi Calm Calm - -  
1:55 AM 46.4 °F - 24.8 °F 43% 30.24 in - Calm Calm - N/A   Clear
2:55 AM 46.4 °F - 23.0 °F 40% 30.24 in - Calm Calm - N/A   Clear
3:55 AM 46.4 °F - 23.0 °F 40% 30.21 in - Calm Calm - N/A   Clear
4:55 AM 46.4 °F - 24.8 °F 43% 30.21 in - Calm Calm - N/A   Clear
5:55 AM 46.4 °F - -22.0 °F 5% 30.21 in - Calm Calm - N/A   Clear
7:00 AM 46 °F - 25 °F 30%  in 31 mi SSW 4.6 mph - -   Partly Cloudy
7:55 AM 46.4 °F 43.5 °F 26.6 °F 46% 30.21 in - SSW 5.8 mph - N/A   Clear
8:55 AM 48.2 °F - 26.6 °F 43% 30.21 in - Calm Calm - N/A   Clear
9:55 AM 50.0 °F - 26.6 °F 40% 30.21 in - Calm Calm - N/A   Clear
10:55 AM 51.8 °F - 26.6 °F 38% 30.24 in - Calm Calm - N/A   Clear
11:55 AM 51.8 °F - 28.4 °F 41% 30.21 in - Calm Calm - N/A   Clear
12:55 PM 51.8 °F - 28.4 °F 41% 30.21 in - Calm Calm - N/A   Clear
1:00 PM 52 °F - 29 °F 28%  in 31 mi Calm Calm - -   Clear
1:55 PM 51.8 °F - 28.4 °F 41% 30.21 in - Calm Calm - N/A   Clear
2:55 PM 50.0 °F - 26.6 °F 40% 30.18 in - Calm Calm - N/A   Clear
3:55 PM 50.0 °F - 28.4 °F 43% 30.21 in - NNW 5.8 mph - N/A   Clear
4:55 PM 46.4 °F 43.5 °F 24.8 °F 43% 30.18 in - North 5.8 mph - N/A   Clear
5:55 PM 46.4 °F 42.4 °F 24.8 °F 43% 30.18 in - North 8.1 mph - N/A   Clear
6:55 PM 46.4 °F 43.5 °F 21.2 °F 37% 30.18 in - NNE 5.8 mph - N/A   Clear
7:55 PM 46.4 °F 43.5 °F 19.4 °F 34% 30.18 in - North 5.8 mph - N/A   Clear
8:55 PM 46.4 °F - 17.6 °F 32% 30.21 in - Calm Calm - N/A   Clear
9:55 PM 46.4 °F - 14.0 °F 27% 30.21 in - Calm Calm - N/A   Clear
10:55 PM 46.4 °F - 10.4 °F 23% 30.21 in - Calm Calm - N/A   Clear
11:55 PM 46.4 °F 44.3 °F 5.0 °F 18% 30.21 in - North 4.6 mph - N/A   Clear